Location: Hylvaty SDH
(49.9612°N, 16.4057°E)
Time: 20:13:55
(UTC+02:00)

Transit 4A - Pass Details

Date: 16 August 2020
Orbit: 862 x 982 km, 66.8° (Epoch: 28 September)

Event Time Altitude Azimuth Distance (km) Brightness Sun altitude
Rises 10:08:54 0° 237° (WSW) 3,511 10.7 39.9°
Reaches altitude 10° 10:11:28 10° 243° (WSW) 2,591 10.1 40.2°
Maximum altitude 10:17:17 47° 317° (NW) 1,211 8.6 41.0°
Drops below altitude 10° 10:23:18 10° 31° (NNE) 2,684 10.4 41.8°
Sets 10:26:01 0° 37° (NE) 3,649 11.0 42.1°
